Date,TemperatureHighF,TemperatureAvgF,TemperatureLowF,DewpointHighF,DewpointAvgF,DewpointLowF,HumidityHigh,HumidityAvg,HumidityLow,PressureMaxIn,PressureMinIn,WindSpeedMaxMPH,WindSpeedAvgMPH,GustSpeedMaxMPH,PrecipitationSumIn
2013-1-1,60,54,47,57,51,46,100,92,83,0.00,40.00,2,1,0,0.00
2013-1-2,61,58,52,60,56,50,100,92,83,0.00,40.00,4,2,0,0.02
2013-1-3,53,51,48,53,50,48,100,99,95,0.00,40.00,3,1,0,0.01
2013-1-4,55,46,38,48,40,34,100,82,47,0.00,40.00,4,2,0,0.00
2013-1-5,57,45,35,42,37,31,100,76,41,0.00,40.00,5,2,0,0.00
2013-1-6,55,49,46,48,46,42,98,88,68,0.00,40.00,3,1,0,0.01
2013-1-7,55,48,41,45,39,35,91,71,47,0.00,40.00,8,4,0,0.00
2013-1-8,67,53,44,55,47,38,95,81,62,0.00,40.00,5,3,0,0.00
2013-1-9,72,62,54,64,58,52,98,86,74,0.00,40.00,4,2,0,0.00
2013-1-10,70,61,54,61,58,54,100,93,64,0.00,40.00,8,4,0,0.03
2013-1-11,73,62,54,66,60,54,100,95,75,0.00,40.00,3,1,0,0.00
2013-1-12,76,62,56,67,60,56,100,93,61,0.00,40.00,1,0,0,0.00
2013-1-13,71,61,54,64,60,54,100,95,80,0.00,40.00,2,0,0,0.00
2013-1-14,75,64,57,65,61,57,100,93,70,0.00,40.00,2,1,0,0.00
2013-1-15,74,64,58,65,61,58,100,94,74,0.00,40.00,3,1,0,0.00
2013-1-16,74,66,60,64,63,60,100,89,68,0.00,40.00,3,1,0,0.00
2013-1-17,70,60,45,62,56,39,99,87,72,0.00,40.00,11,3,0,0.05
2013-1-18,55,46,38,41,32,21,91,63,27,0.00,40.00,9,5,0,0.00
2013-1-19,62,48,40,48,39,30,100,71,52,0.00,40.00,5,3,0,0.00
2013-1-20,67,52,44,49,43,35,100,75,32,0.00,40.00,6,2,0,0.00
2013-1-21,64,51,38,44,39,34,98,68,36,0.00,40.00,6,2,0,0.00
2013-1-22,56,48,41,34,25,22,56,42,29,0.00,40.00,5,3,0,0.00
2013-1-23,54,42,34,25,22,20,60,47,32,0.00,40.00,5,3,0,0.00
2013-1-24,68,56,40,46,33,23,62,43,25,0.00,40.00,9,6,0,0.00
2013-1-25,56,42,31,46,32,20,75,66,60,0.00,40.00,7,4,0,0.00
2013-1-26,62,49,40,48,42,38,98,78,46,0.00,40.00,5,2,0,0.00
2013-1-27,55,45,38,42,38,34,95,78,56,0.00,40.00,7,4,0,0.00
2013-1-28,64,51,42,54,46,38,100,84,63,0.00,40.00,4,2,0,0.00
2013-1-29,72,58,48,65,57,48,100,95,78,0.00,40.00,2,1,0,0.00
2013-1-30,71,66,59,65,63,59,100,91,79,0.00,40.00,8,4,0,0.11
2013-1-31,57,50,45,54,28,21,91,45,27,0.00,40.00,10,5,0,0.00